Location: Berbisdorf
(50.7638°N, 12.9442°E)
Time: 01:01:31
(UTC+00:00)

CZ-2D R/B - Pass Details

Date: 07 June 2020
Orbit: 791 x 845 km, 98.7° (Epoch: 15 July)

Event Time Altitude Azimuth Distance (km) Brightness Sun altitude
Rises 02:03:47 0° 8° (N) 3,316 6.4 -6.8°
Reaches altitude 10° 02:06:19 10° 359° (N) 2,377 5.3 -6.5°
Maximum altitude 02:10:54 32° 298° (WNW) 1,348 3.2 -6.1°
Drops below altitude 10° 02:15:26 10° 237° (WSW) 2,357 3.9 -5.6°
Enters shadow 02:16:22 - 233° (SW) 2,689 4.2 -5.5°
